Hourly Data Report for September 30, 2010

IQALUIT CLIMATE
NUNAVUT

63°44'50.000" N
68°32'40.000" W
33.50 m
2402592
71321
XFB

Download Data

Hourly Data (September 2010)
Hourly Data Report for September 30, 2010
TIME
LST
Temp Definition
°C
Dew Point Definition
°C
Rel Hum Definition
%
Precip. Amount Definition
mm

Wind Dir Definition
10's deg

Wind Spd Definition
km/h
Visibility Definition
km
Stn Press Definition
kPa
Hmdx Definition


Wind Chill Definition


Weather Definition


00:00 0.6 0.4 99   32 7   100.73     LegendNANA
01:00 -0.2 -0.2 100   32 9   100.76   -3 LegendNANA
02:00 -0.4 -0.4 100   32 11   100.78   -4 LegendNANA
03:00 -0.3 -0.3 100   31 9   100.76   -3 LegendNANA
04:00 -0.1 -0.1 100   32 9   100.77   -3 LegendNANA
05:00 0.2 -0.1 98   33 9   100.74     LegendNANA
06:00 0.2 0.0 99   32 7   100.73     LegendNANA
07:00 0.4 0.2 99   32 6   100.71     LegendNANA
08:00 1.0 0.6 97   31 6   100.70     LegendNANA
09:00 2.0 1.0 93   33 9   100.68     LegendNANA
10:00 2.8 1.0 88   33 9   100.66     LegendNANA
11:00 3.2 0.4 82   31 7   100.61     LegendNANA
12:00 4.2 0.8 79   30 9   100.56     LegendNANA
13:00 4.6 1.4 80   30 7   100.52     LegendNANA
14:00 4.6 1.6 81   30 9   100.47     LegendNANA
15:00 4.9 1.9 81   29 9   100.44     LegendNANA
16:00 3.8 1.8 87   12 7   100.42     LegendNANA
17:00 2.8 1.8 93   15 6   100.42     LegendNANA
18:00 2.6 1.7 94   15 4   100.42     LegendNANA
19:00 2.3 1.9 97   13 4   100.41     LegendNANA
20:00 2.3 1.7 96   13 2   100.39     LegendNANA
21:00 2.4 1.5 94   14 2   100.39     LegendNANA
22:00 2.3 1.5 94   24 4   100.35     LegendNANA
23:00 2.0 1.5 96   33 7   100.33     LegendNANA

Notes on Data Quality.

Legend

  • E = Estimated
  • M = Missing
  • NA = Not Available*
  • [empty] = Indicates an unobserved value
Date modified: